Погода в Больших Мемях

Россия / Республика Татарстан     55°24′00″N   48°40′35″E
темп.,
°C
ветер,
м/с
пор.,
м/с
влажн.,
%
обл.,
%
осадки,
мм/ч
давл.,
гПа
погр.,
м
16 апреля, пт
пт1600:00+12ссв226317 0.0 101912
03:00+9св51197100 0.0 1020266
06:00+9св6119480 0.0 1021350
09:00+11всв7107780 0.0 1022544
12:00+14всв686094 0.0 1023800
15:00+14всв7957100 0.0 1023788
18:00+13всв596397 0.0 1023475
21:00+9всв5127250 0.0 1025379
17 апреля, сб
сб1700:00+7всв512695 0.0 1025308
03:00+5св510703 0.0 1026219
06:00+4всв510714 0.0 1027275
09:00+9всв69535 0.0 1027554
12:00+12всв67400 0.0 10261026
15:00+13всв56325 0.0 10251188
18:00+10св47450 0.0 1025162
21:00+7св411610 0.0 1025217
18 апреля, вс
вс1800:00+4всв39700 0.0 1025188
03:00+3всв38760 0.0 1025130
06:00+3св49762 0.0 1025229
09:00+9всв69540 0.0 1024780
12:00+12всв67435 0.0 10241529
15:00+13всв78425 0.0 10241706
18:00+8всв8136664 0.0 1025726
21:00+7всв71161100 0.0 1027724
19 апреля, пн
пн1900:00+4всв6125197 0.0 1028548
03:00+2всв6136367 0.0 1028480
06:00+2всв7136024 0.0 1029602
09:00+4в9124238 0.0 10301038
12:00+6в911395 0.0 10301427
15:00+8в9103523 0.0 10301616
18:00+6в711404 0.0 1030901
21:00+3в715445 0.0 1031483
20 апреля, вт
вт2000:00+2в714495 0.0 1032398
03:000в612595 0.0 1032295
06:00+1в612630 0.0 1033351
09:00+5вюв810420 0.0 1032881
12:00+8вюв89340 0.0 10321256
15:00+9вюв810293 0.0 10301365
18:00+8вюв61237100 0.0 1028596
21:00+5юв6154389 0.0 1028476